ARG1636 SAEZ-SAZN

Flight info

Callsign ARG1636
Flight time 1h 29m
Altitude 32000
Route TORUL1A TORUL UT654 BIXIM UT669 ROPON ROPON2Q
Aircraft B738/M-SDE2E3FGHIRWXY/LB1

Departure

Time 2026-04-17 05:31
Airport Ezeiza International Airport - Ministro Pistarini (SAEZ)

Arrival

Time 2026-04-17 07:00
Airport Presidente Perón International Airport (SAZN)
Time Latitude Longitude Altitude Speed Heading
2026-04-17 05:07 -34.81642 -58.54358 74 ft 0 kts 11°
2026-04-17 05:17 -34.81646 -58.54359 74 ft 1 kts 10°
2026-04-17 05:18 -34.81653 -58.54360 65 ft 1 kts 11°
2026-04-17 05:18 -34.81660 -58.54362 67 ft 1 kts 11°
2026-04-17 05:18 -34.81668 -58.54364 66 ft 1 kts 11°
2026-04-17 05:18 -34.81675 -58.54366 68 ft 1 kts 12°
2026-04-17 05:19 -34.81682 -58.54367 68 ft 1 kts 12°
2026-04-17 05:19 -34.81689 -58.54369 65 ft 1 kts 12°
2026-04-17 05:19 -34.81696 -58.54371 65 ft 1 kts 12°
2026-04-17 05:19 -34.81703 -58.54373 67 ft 1 kts 12°
2026-04-17 05:20 -34.81710 -58.54375 64 ft 1 kts 12°
2026-04-17 05:20 -34.81718 -58.54377 64 ft 1 kts 12°
2026-04-17 05:20 -34.81725 -58.54379 73 ft 1 kts 12°
2026-04-17 05:20 -34.81732 -58.54380 66 ft 1 kts 11°
2026-04-17 05:21 -34.81739 -58.54382 68 ft 1 kts
2026-04-17 05:21 -34.81745 -58.54383 70 ft 1 kts
2026-04-17 05:21 -34.81752 -58.54383 70 ft 1 kts 347°
2026-04-17 05:21 -34.81756 -58.54382 71 ft 1 kts 319°
2026-04-17 05:22 -34.81759 -58.54379 71 ft 0 kts 302°
2026-04-17 05:22 -34.81761 -58.54376 71 ft 0 kts 294°
2026-04-17 05:22 -34.81762 -58.54372 72 ft 0 kts 289°
2026-04-17 05:22 -34.81763 -58.54368 74 ft 0 kts 286°
2026-04-17 05:23 -34.81763 -58.54367 74 ft 0 kts 286°
2026-04-17 05:24 -34.81761 -58.54375 68 ft 2 kts 286°
2026-04-17 05:24 -34.81755 -58.54405 72 ft 5 kts 283°
2026-04-17 05:24 -34.81753 -58.54454 74 ft 7 kts 272°
2026-04-17 05:25 -34.81753 -58.54522 69 ft 9 kts 270°
2026-04-17 05:25 -34.81765 -58.54604 67 ft 10 kts 255°
2026-04-17 05:25 -34.81780 -58.54686 68 ft 10 kts 264°
2026-04-17 05:25 -34.81777 -58.54767 67 ft 10 kts 278°
2026-04-17 05:26 -34.81765 -58.54846 67 ft 9 kts 285°
2026-04-17 05:26 -34.81750 -58.54921 74 ft 9 kts 281°
2026-04-17 05:26 -34.81739 -58.54996 74 ft 9 kts 281°
2026-04-17 05:26 -34.81728 -58.55068 74 ft 9 kts 280°
2026-04-17 05:27 -34.81715 -58.55138 69 ft 8 kts 284°
2026-04-17 05:27 -34.81701 -58.55204 74 ft 8 kts 282°
2026-04-17 05:27 -34.81697 -58.55271 70 ft 8 kts 259°
2026-04-17 05:27 -34.81728 -58.55322 71 ft 8 kts 214°
2026-04-17 05:28 -34.81777 -58.55340 67 ft 7 kts 183°
2026-04-17 05:28 -34.81825 -58.55325 71 ft 7 kts 148°
2026-04-17 05:28 -34.81865 -58.55292 71 ft 7 kts 146°
2026-04-17 05:28 -34.81907 -58.55264 72 ft 7 kts 150°
2026-04-17 05:29 -34.81926 -58.55226 73 ft 5 kts 105°
2026-04-17 05:29 -34.81927 -58.55219 73 ft 0 kts 102°
2026-04-17 05:29 -34.81930 -58.55204 77 ft 8 kts 102°
2026-04-17 05:30 -34.81961 -58.55026 78 ft 41 kts 102°
2026-04-17 05:30 -34.82071 -58.54421 82 ft 106 kts 102°
2026-04-17 05:30 -34.82265 -58.53297 83 ft 163 kts 101°
2026-04-17 05:30 -34.82528 -58.51810 358 ft 188 kts 105°
2026-04-17 05:31 -34.82882 -58.50277 987 ft 187 kts 118°
2026-04-17 05:31 -34.83642 -58.49054 1810 ft 175 kts 135°
2026-04-17 05:31 -34.84465 -58.47956 2437 ft 182 kts 129°
2026-04-17 05:31 -34.85230 -58.46620 2711 ft 204 kts 126°
2026-04-17 05:32 -34.86055 -58.45104 2960 ft 225 kts 127°
2026-04-17 05:32 -34.86970 -58.43468 3432 ft 239 kts 125°
2026-04-17 05:32 -34.87871 -58.41747 4229 ft 243 kts 123°
2026-04-17 05:32 -34.88824 -58.40054 5051 ft 243 kts 136°
2026-04-17 05:33 -34.90216 -58.38898 5849 ft 245 kts 157°
2026-04-17 05:33 -34.91899 -58.38526 6563 ft 252 kts 183°
2026-04-17 05:33 -34.93586 -58.39180 7287 ft 261 kts 210°
2026-04-17 05:33 -34.94905 -58.40711 8047 ft 268 kts 234°
2026-04-17 05:34 -34.95821 -58.42700 8854 ft 270 kts 240°
2026-04-17 05:34 -34.96658 -58.44768 9614 ft 274 kts 242°
2026-04-17 05:34 -34.97492 -58.46878 10223 ft 283 kts 242°
2026-04-17 05:34 -34.98381 -58.49126 10464 ft 303 kts 242°
2026-04-17 05:35 -34.99311 -58.51471 11069 ft 309 kts 242°
2026-04-17 05:35 -35.00253 -58.53835 11807 ft 311 kts 242°
2026-04-17 05:35 -35.01205 -58.56214 12552 ft 313 kts 243°
2026-04-17 05:35 -35.02165 -58.58609 13281 ft 316 kts 243°
2026-04-17 05:36 -35.03134 -58.61022 13954 ft 318 kts 243°
2026-04-17 05:36 -35.04112 -58.63454 14583 ft 321 kts 243°
2026-04-17 05:36 -35.05099 -58.65908 15224 ft 323 kts 243°
2026-04-17 05:36 -35.06095 -58.68381 15848 ft 326 kts 243°
2026-04-17 05:37 -35.07099 -58.70878 16502 ft 329 kts 243°
2026-04-17 05:37 -35.08109 -58.73390 17123 ft 332 kts 243°
2026-04-17 05:37 -35.09130 -58.75930 17728 ft 335 kts 243°
2026-04-17 05:37 -35.10161 -58.78496 18301 ft 338 kts 243°
2026-04-17 05:38 -35.11202 -58.81090 18846 ft 341 kts 243°
2026-04-17 05:38 -35.12249 -58.83702 19380 ft 343 kts 243°
2026-04-17 05:38 -35.13302 -58.86329 19913 ft 346 kts 243°
2026-04-17 05:38 -35.14362 -58.88978 20447 ft 349 kts 243°
2026-04-17 05:39 -35.15433 -58.91653 20984 ft 351 kts 243°
2026-04-17 05:39 -35.16506 -58.94338 21486 ft 354 kts 243°
2026-04-17 05:39 -35.17578 -58.97022 21969 ft 357 kts 243°
2026-04-17 05:39 -35.18686 -58.99796 22480 ft 360 kts 243°
2026-04-17 05:40 -35.19786 -59.02557 22991 ft 362 kts 244°
2026-04-17 05:40 -35.20895 -59.05339 23462 ft 365 kts 244°
2026-04-17 05:40 -35.22011 -59.08142 23850 ft 368 kts 244°
2026-04-17 05:40 -35.23136 -59.10971 24256 ft 371 kts 244°
2026-04-17 05:41 -35.24250 -59.13774 24677 ft 372 kts 244°
2026-04-17 05:41 -35.25398 -59.16665 25094 ft 374 kts 244°
2026-04-17 05:41 -35.26524 -59.19504 25485 ft 377 kts 244°
2026-04-17 05:41 -35.27670 -59.22396 25867 ft 379 kts 244°
2026-04-17 05:42 -35.28837 -59.25343 26284 ft 380 kts 244°
2026-04-17 05:42 -35.29978 -59.28227 26699 ft 382 kts 244°
2026-04-17 05:42 -35.31137 -59.31158 27078 ft 384 kts 244°
2026-04-17 05:42 -35.32317 -59.34146 27448 ft 386 kts 244°
2026-04-17 05:43 -35.33473 -59.37075 27822 ft 388 kts 244°
2026-04-17 05:43 -35.34649 -59.40058 28192 ft 390 kts 244°
2026-04-17 05:43 -35.35835 -59.43053 28536 ft 392 kts 243°
2026-04-17 05:43 -35.37244 -59.45928 28879 ft 395 kts 236°
2026-04-17 05:44 -35.38840 -59.48671 29246 ft 396 kts 235°
2026-04-17 05:44 -35.40464 -59.51405 29589 ft 398 kts 234°
2026-04-17 05:44 -35.42101 -59.54154 29906 ft 400 kts 235°
2026-04-17 05:44 -35.43747 -59.56927 30175 ft 403 kts 235°
2026-04-17 05:45 -35.45392 -59.59712 30454 ft 404 kts 235°
2026-04-17 05:45 -35.47038 -59.62512 30727 ft 406 kts 235°
2026-04-17 05:45 -35.48688 -59.65331 30971 ft 408 kts 235°
2026-04-17 05:45 -35.50347 -59.68172 31219 ft 410 kts 235°
2026-04-17 05:46 -35.52006 -59.71016 31481 ft 411 kts 236°
2026-04-17 05:46 -35.53674 -59.73881 31728 ft 413 kts 236°
2026-04-17 05:46 -35.55348 -59.76759 31842 ft 417 kts 236°
2026-04-17 05:46 -35.57044 -59.79677 31853 ft 422 kts 236°
2026-04-17 05:47 -35.60496 -59.85625 31861 ft 432 kts 236°
2026-04-17 05:47 -35.64023 -59.91709 31863 ft 442 kts 236°
2026-04-17 05:48 -35.67595 -59.97881 31849 ft 443 kts 236°
2026-04-17 05:48 -35.71161 -60.04053 31853 ft 442 kts 236°
2026-04-17 05:49 -35.74716 -60.10218 31856 ft 442 kts 236°
2026-04-17 05:49 -35.78265 -60.16384 31860 ft 441 kts 236°
2026-04-17 05:50 -35.81804 -60.22545 31856 ft 440 kts 236°
2026-04-17 05:50 -35.85334 -60.28700 31862 ft 439 kts 237°
2026-04-17 05:51 -35.88856 -60.34851 31859 ft 439 kts 237°
2026-04-17 05:51 -35.92366 -60.40994 31866 ft 438 kts 237°
2026-04-17 05:52 -35.95874 -60.47145 31859 ft 438 kts 237°
2026-04-17 05:52 -35.99376 -60.53295 31864 ft 438 kts 237°
2026-04-17 05:53 -36.02877 -60.59455 31859 ft 438 kts 237°
2026-04-17 05:53 -36.06383 -60.65634 31864 ft 439 kts 237°
2026-04-17 05:54 -36.09293 -60.70772 31865 ft 440 kts 237°
2026-04-17 05:54 -36.12801 -60.76975 31865 ft 440 kts 237°
2026-04-17 05:55 -36.16863 -60.84211 31864 ft 441 kts 238°
2026-04-17 05:55 -36.20353 -60.90455 31868 ft 441 kts 238°
2026-04-17 05:56 -36.23272 -60.95684 31867 ft 441 kts 238°
2026-04-17 05:56 -36.26757 -61.01935 31868 ft 441 kts 238°
2026-04-17 05:57 -36.30213 -61.08145 31868 ft 440 kts 238°
2026-04-17 05:57 -36.33706 -61.14435 31871 ft 439 kts 238°
2026-04-17 05:58 -36.37166 -61.20672 31870 ft 438 kts 238°
2026-04-17 05:59 -36.42336 -61.30018 31877 ft 437 kts 238°
2026-04-17 05:59 -36.45741 -61.36192 31877 ft 436 kts 238°
2026-04-17 06:00 -36.49162 -61.42405 31882 ft 435 kts 238°
2026-04-17 06:00 -36.52571 -61.48608 31880 ft 434 kts 238°
2026-04-17 06:01 -36.55972 -61.54808 31882 ft 433 kts 238°
2026-04-17 06:01 -36.59362 -61.60997 31889 ft 432 kts 238°
2026-04-17 06:02 -36.62742 -61.67181 31889 ft 432 kts 238°
2026-04-17 06:02 -36.66111 -61.73357 31888 ft 431 kts 238°
2026-04-17 06:03 -36.69474 -61.79532 31888 ft 430 kts 238°
2026-04-17 06:03 -36.72822 -61.85689 31889 ft 429 kts 238°
2026-04-17 06:04 -36.76159 -61.91840 31892 ft 428 kts 239°
2026-04-17 06:04 -36.79492 -61.97994 31890 ft 427 kts 239°
2026-04-17 06:05 -36.82813 -62.04136 31889 ft 427 kts 239°
2026-04-17 06:05 -36.86128 -62.10278 31889 ft 426 kts 239°
2026-04-17 06:06 -36.89439 -62.16424 31885 ft 426 kts 239°
2026-04-17 06:06 -36.92741 -62.22566 31885 ft 426 kts 239°
2026-04-17 06:07 -36.96043 -62.28717 31885 ft 426 kts 239°
2026-04-17 06:07 -36.99341 -62.34873 31886 ft 426 kts 239°
2026-04-17 06:08 -37.02611 -62.40989 31888 ft 426 kts 239°
2026-04-17 06:08 -37.05906 -62.47162 31883 ft 426 kts 239°
2026-04-17 06:09 -37.09195 -62.53335 31885 ft 426 kts 239°
2026-04-17 06:09 -37.12484 -62.59519 31883 ft 426 kts 240°
2026-04-17 06:10 -37.15768 -62.65706 31888 ft 427 kts 240°
2026-04-17 06:10 -37.19051 -62.71902 31885 ft 427 kts 240°
2026-04-17 06:11 -37.22330 -62.78102 31883 ft 427 kts 240°
2026-04-17 06:11 -37.25608 -62.84312 31883 ft 426 kts 240°
2026-04-17 06:12 -37.28879 -62.90520 31881 ft 426 kts 240°
2026-04-17 06:12 -37.32148 -62.96736 31884 ft 426 kts 240°
2026-04-17 06:13 -37.35304 -63.03025 31876 ft 423 kts 247°
2026-04-17 06:13 -37.37834 -63.09678 31881 ft 421 kts 248°
2026-04-17 06:14 -37.40321 -63.16349 31882 ft 421 kts 248°
2026-04-17 06:14 -37.42816 -63.23007 31880 ft 421 kts 248°
2026-04-17 06:15 -37.45317 -63.29655 31880 ft 420 kts 248°
2026-04-17 06:15 -37.47814 -63.36294 31874 ft 419 kts 248°
2026-04-17 06:16 -37.50301 -63.42917 31880 ft 418 kts 249°
2026-04-17 06:16 -37.52782 -63.49539 31870 ft 418 kts 249°
2026-04-17 06:17 -37.55242 -63.56119 31871 ft 417 kts 249°
2026-04-17 06:17 -37.57704 -63.62719 31874 ft 416 kts 249°
2026-04-17 06:18 -37.60164 -63.69331 31868 ft 416 kts 249°
2026-04-17 06:18 -37.62616 -63.75934 31871 ft 415 kts 249°
2026-04-17 06:19 -37.65063 -63.82538 31871 ft 416 kts 249°
2026-04-17 06:19 -37.67508 -63.89150 31872 ft 416 kts 249°
2026-04-17 06:20 -37.69948 -63.95762 31872 ft 416 kts 250°
2026-04-17 06:20 -37.72371 -64.02344 31868 ft 416 kts 250°
2026-04-17 06:21 -37.74808 -64.08978 31866 ft 416 kts 250°
2026-04-17 06:21 -37.77242 -64.15618 31870 ft 416 kts 250°
2026-04-17 06:22 -37.79671 -64.22258 31872 ft 416 kts 250°
2026-04-17 06:22 -37.82098 -64.28909 31864 ft 416 kts 250°
2026-04-17 06:23 -37.84523 -64.35567 31865 ft 416 kts 250°
2026-04-17 06:23 -37.86942 -64.42224 31865 ft 416 kts 250°
2026-04-17 06:24 -37.89355 -64.48878 31868 ft 416 kts 250°
2026-04-17 06:24 -37.91762 -64.55533 31864 ft 415 kts 251°
2026-04-17 06:25 -37.94162 -64.62180 31867 ft 415 kts 251°
2026-04-17 06:25 -37.96558 -64.68833 31864 ft 415 kts 251°
2026-04-17 06:26 -37.98949 -64.75487 31863 ft 415 kts 251°
2026-04-17 06:26 -38.01336 -64.82145 31867 ft 415 kts 251°
2026-04-17 06:27 -38.03703 -64.88761 31859 ft 415 kts 251°
2026-04-17 06:27 -38.06081 -64.95422 31870 ft 414 kts 251°
2026-04-17 06:28 -38.08455 -65.02088 31868 ft 414 kts 251°
2026-04-17 06:28 -38.10826 -65.08760 31868 ft 415 kts 251°
2026-04-17 06:29 -38.13196 -65.15442 31869 ft 415 kts 251°
2026-04-17 06:29 -38.15560 -65.22125 31866 ft 415 kts 251°
2026-04-17 06:30 -38.17927 -65.28830 31876 ft 416 kts 252°
2026-04-17 06:30 -38.20289 -65.35537 31872 ft 416 kts 252°
2026-04-17 06:31 -38.22650 -65.42255 31873 ft 416 kts 252°
2026-04-17 06:31 -38.25008 -65.48980 31875 ft 416 kts 252°
2026-04-17 06:32 -38.27363 -65.55714 31876 ft 416 kts 252°
2026-04-17 06:32 -38.29714 -65.62450 31878 ft 416 kts 252°
2026-04-17 06:33 -38.32002 -65.68999 31862 ft 393 kts 252°
2026-04-17 06:33 -38.33090 -65.72115 31860 ft 378 kts 252°
2026-04-17 06:33 -38.34150 -65.75160 31860 ft 364 kts 252°
2026-04-17 06:33 -38.35163 -65.78085 31750 ft 361 kts 252°
2026-04-17 06:34 -38.36156 -65.80962 31512 ft 355 kts 253°
2026-04-17 06:34 -38.37143 -65.83823 31157 ft 352 kts 253°
2026-04-17 06:34 -38.38122 -65.86660 30842 ft 348 kts 253°
2026-04-17 06:34 -38.39092 -65.89468 30482 ft 345 kts 253°
2026-04-17 06:35 -38.40056 -65.92262 30125 ft 343 kts 253°
2026-04-17 06:35 -38.41011 -65.95031 29758 ft 340 kts 253°
2026-04-17 06:35 -38.41962 -65.97772 29487 ft 334 kts 253°
2026-04-17 06:35 -38.42903 -66.00465 29124 ft 331 kts 253°
2026-04-17 06:36 -38.43834 -66.03130 28751 ft 328 kts 253°
2026-04-17 06:36 -38.44756 -66.05774 28404 ft 324 kts 253°
2026-04-17 06:36 -38.45670 -66.08399 28035 ft 323 kts 253°
2026-04-17 06:36 -38.46578 -66.11011 27666 ft 322 kts 253°
2026-04-17 06:37 -38.47486 -66.13632 27325 ft 325 kts 253°
2026-04-17 06:37 -38.48415 -66.16325 26983 ft 339 kts 252°
2026-04-17 06:37 -38.49376 -66.19109 26604 ft 344 kts 252°
2026-04-17 06:37 -38.50340 -66.21889 26226 ft 342 kts 252°
2026-04-17 06:38 -38.51299 -66.24652 25864 ft 339 kts 252°
2026-04-17 06:38 -38.52249 -66.27393 25503 ft 337 kts 252°
2026-04-17 06:38 -38.53192 -66.30120 25151 ft 334 kts 252°
2026-04-17 06:38 -38.54126 -66.32827 24805 ft 332 kts 252°
2026-04-17 06:39 -38.55043 -66.35489 24460 ft 331 kts 251°
2026-04-17 06:39 -38.55980 -66.38209 24107 ft 329 kts 251°
2026-04-17 06:39 -38.56886 -66.40841 23767 ft 328 kts 251°
2026-04-17 06:39 -38.57800 -66.43502 23392 ft 327 kts 251°
2026-04-17 06:40 -38.58712 -66.46162 23006 ft 325 kts 251°
2026-04-17 06:40 -38.59614 -66.48798 22642 ft 323 kts 251°
2026-04-17 06:40 -38.60511 -66.51421 22288 ft 320 kts 250°
2026-04-17 06:40 -38.61398 -66.54020 21942 ft 318 kts 250°
2026-04-17 06:41 -38.62280 -66.56606 21606 ft 316 kts 250°
2026-04-17 06:41 -38.63154 -66.59170 21268 ft 314 kts 250°
2026-04-17 06:41 -38.64023 -66.61724 20927 ft 312 kts 250°
2026-04-17 06:41 -38.64886 -66.64260 20589 ft 310 kts 250°
2026-04-17 06:42 -38.65742 -66.66780 20264 ft 308 kts 250°
2026-04-17 06:42 -38.66594 -66.69289 19926 ft 307 kts 250°
2026-04-17 06:42 -38.67442 -66.71790 19590 ft 306 kts 250°
2026-04-17 06:42 -38.68287 -66.74283 19272 ft 305 kts 250°
2026-04-17 06:43 -38.69129 -66.76769 18938 ft 304 kts 250°
2026-04-17 06:43 -38.69967 -66.79246 18603 ft 303 kts 250°
2026-04-17 06:43 -38.70802 -66.81716 18273 ft 303 kts 250°
2026-04-17 06:43 -38.71637 -66.84190 17911 ft 302 kts 250°
2026-04-17 06:44 -38.72470 -66.86656 17545 ft 301 kts 250°
2026-04-17 06:44 -38.73297 -66.89108 17210 ft 299 kts 250°
2026-04-17 06:44 -38.74118 -66.91546 16875 ft 297 kts 250°
2026-04-17 06:44 -38.74934 -66.93969 16550 ft 296 kts 250°
2026-04-17 06:45 -38.75473 -66.95571 16337 ft 295 kts 250°
2026-04-17 06:45 -38.76552 -66.98780 15904 ft 292 kts 250°
2026-04-17 06:45 -38.77084 -67.00364 15684 ft 291 kts 250°
2026-04-17 06:45 -38.77882 -67.02742 15369 ft 290 kts 250°
2026-04-17 06:46 -38.78944 -67.05910 14946 ft 288 kts 250°
2026-04-17 06:46 -38.79468 -67.07473 14725 ft 288 kts 250°
2026-04-17 06:46 -38.80255 -67.09825 14403 ft 287 kts 249°
2026-04-17 06:46 -38.81039 -67.12169 14088 ft 286 kts 249°
2026-04-17 06:47 -38.81822 -67.14510 13767 ft 285 kts 249°
2026-04-17 06:47 -38.82600 -67.16842 13400 ft 285 kts 249°
2026-04-17 06:47 -38.83378 -67.19172 13064 ft 284 kts 249°
2026-04-17 06:47 -38.84153 -67.21497 12731 ft 283 kts 249°
2026-04-17 06:48 -38.84922 -67.23805 12403 ft 281 kts 249°
2026-04-17 06:48 -38.85690 -67.26111 12084 ft 280 kts 249°
2026-04-17 06:48 -38.86454 -67.28408 11755 ft 279 kts 249°
2026-04-17 06:48 -38.87214 -67.30696 11435 ft 279 kts 249°
2026-04-17 06:49 -38.87973 -67.32983 11108 ft 278 kts 249°
2026-04-17 06:49 -38.88730 -67.35263 10796 ft 277 kts 248°
2026-04-17 06:49 -38.89483 -67.37535 10456 ft 277 kts 248°
2026-04-17 06:49 -38.90237 -67.39812 10165 ft 276 kts 248°
2026-04-17 06:50 -38.90978 -67.42047 10009 ft 269 kts 248°
2026-04-17 06:50 -38.91702 -67.44234 9832 ft 264 kts 248°
2026-04-17 06:50 -38.92416 -67.46398 9523 ft 263 kts 248°
2026-04-17 06:50 -38.93128 -67.48553 9256 ft 261 kts 248°
2026-04-17 06:51 -38.93823 -67.50699 8974 ft 260 kts 252°
2026-04-17 06:51 -38.94100 -67.52987 8561 ft 262 kts 268°
2026-04-17 06:51 -38.94131 -67.55322 8247 ft 260 kts 269°
2026-04-17 06:51 -38.94157 -67.57592 7960 ft 257 kts 269°
2026-04-17 06:52 -38.94187 -67.59866 7694 ft 253 kts 269°
2026-04-17 06:52 -38.94220 -67.62113 7415 ft 251 kts 269°
2026-04-17 06:52 -38.94255 -67.64343 7138 ft 250 kts 269°
2026-04-17 06:52 -38.94292 -67.66568 6850 ft 249 kts 268°
2026-04-17 06:53 -38.94330 -67.68793 6551 ft 249 kts 269°
2026-04-17 06:53 -38.94369 -67.71014 6260 ft 249 kts 269°
2026-04-17 06:53 -38.94408 -67.73234 5951 ft 248 kts 269°
2026-04-17 06:53 -38.94446 -67.75419 5822 ft 240 kts 269°
2026-04-17 06:54 -38.94482 -67.77530 5698 ft 232 kts 269°
2026-04-17 06:54 -38.94517 -67.79548 5623 ft 222 kts 269°
2026-04-17 06:54 -38.94553 -67.81521 5442 ft 222 kts 268°
2026-04-17 06:54 -38.94622 -67.83516 5193 ft 224 kts 268°
2026-04-17 06:55 -38.94699 -67.85525 4934 ft 225 kts 267°
2026-04-17 06:55 -38.94775 -67.87512 4676 ft 221 kts 268°
2026-04-17 06:55 -38.94847 -67.89457 4413 ft 215 kts 268°
2026-04-17 06:55 -38.94917 -67.91344 4178 ft 207 kts 267°
2026-04-17 06:56 -38.94962 -67.93158 3933 ft 199 kts 270°
2026-04-17 06:56 -38.94959 -67.94901 3700 ft 191 kts 270°
2026-04-17 06:56 -38.94952 -67.96575 3478 ft 184 kts 270°
2026-04-17 06:56 -38.94947 -67.98192 3260 ft 178 kts 270°
2026-04-17 06:57 -38.94942 -67.99763 3041 ft 174 kts 270°
2026-04-17 06:57 -38.94939 -68.01295 2808 ft 169 kts 270°
2026-04-17 06:57 -38.94935 -68.02757 2652 ft 157 kts 271°
2026-04-17 06:57 -38.94931 -68.04166 2428 ft 159 kts 270°
2026-04-17 06:58 -38.94926 -68.05582 2235 ft 157 kts 270°
2026-04-17 06:58 -38.94922 -68.06937 1994 ft 148 kts 271°
2026-04-17 06:58 -38.94917 -68.08242 1810 ft 144 kts 270°
2026-04-17 06:58 -38.94914 -68.09516 1595 ft 142 kts 270°
2026-04-17 06:59 -38.94911 -68.10803 1421 ft 147 kts 270°
2026-04-17 06:59 -38.94911 -68.12133 1229 ft 151 kts 270°
2026-04-17 06:59 -38.94910 -68.13486 1006 ft 153 kts 271°
2026-04-17 06:59 -38.94902 -68.14825 889 ft 141 kts 270°
2026-04-17 07:00 -38.94898 -68.15737 898 ft 58 kts 270°
2026-04-17 07:00 -38.94896 -68.16118 899 ft 32 kts 272°
2026-04-17 07:00 -38.94885 -68.16303 896 ft 9 kts 271°
2026-04-17 07:00 -38.94885 -68.16368 896 ft 6 kts 253°
2026-04-17 07:01 -38.94913 -68.16367 896 ft 4 kts 100°
2026-04-17 07:01 -38.94910 -68.16326 896 ft 4 kts 85°
2026-04-17 07:01 -38.94908 -68.16287 896 ft 4 kts 86°
2026-04-17 07:01 -38.94902 -68.16239 896 ft 6 kts 82°
2026-04-17 07:02 -38.94899 -68.16185 897 ft 6 kts 88°
2026-04-17 07:02 -38.94897 -68.16131 899 ft 6 kts 88°
2026-04-17 07:02 -38.94897 -68.16077 900 ft 7 kts 91°
2026-04-17 07:02 -38.94897 -68.15987 901 ft 13 kts 91°
2026-04-17 07:03 -38.94898 -68.15839 899 ft 20 kts 91°
2026-04-17 07:03 -38.94900 -68.15630 898 ft 24 kts 90°
2026-04-17 07:03 -38.94899 -68.15420 895 ft 23 kts 90°
2026-04-17 07:03 -38.94905 -68.15220 890 ft 18 kts 94°
2026-04-17 07:04 -38.94941 -68.15080 890 ft 14 kts 131°
2026-04-17 07:04 -38.95009 -68.14994 889 ft 13 kts 136°
2026-04-17 07:04 -38.95073 -68.14911 891 ft 13 kts 126°
2026-04-17 07:04 -38.95091 -68.14801 892 ft 13 kts 90°
2026-04-17 07:05 -38.95092 -68.14690 892 ft 12 kts 91°
2026-04-17 07:05 -38.95092 -68.14582 891 ft 12 kts 89°
2026-04-17 07:05 -38.95091 -68.14477 891 ft 12 kts 89°
2026-04-17 07:05 -38.95091 -68.14376 892 ft 11 kts 90°
2026-04-17 07:06 -38.95092 -68.14280 893 ft 11 kts 90°
2026-04-17 07:06 -38.95092 -68.14208 893 ft 8 kts 90°
2026-04-17 07:06 -38.95094 -68.14171 892 ft 1 kts 114°
2026-04-17 07:06 -38.95098 -68.14166 892 ft 1 kts 130°
2026-04-17 07:07 -38.95103 -68.14163 892 ft 1 kts 158°
2026-04-17 07:07 -38.95113 -68.14161 892 ft 2 kts 173°
2026-04-17 07:07 -38.95128 -68.14160 891 ft 3 kts 176°
2026-04-17 07:07 -38.95147 -68.14159 891 ft 1 kts 178°
2026-04-17 07:08 -38.95154 -68.14158 891 ft 1 kts 178°
2026-04-17 07:08 -38.95156 -68.14158 891 ft 0 kts 178°